| time (UTC) | temp C | wind direction | speed KPH | gust KPH | rain 1hr cm | rain 24hr cm | rain mn cm | humidity % | barometer mb |
| 20260504070312 | 7 | 20 | 0.0 | 3.2 | 0.00 | 0.10 | 0.00 | 94 | 1006.9 |
| 20260504045821 | 7 | 46 | 0.0 | 3.2 | 0.00 | 0.10 | 0.00 | 93 | 1007.8 |
| 20260504044753 | 7 | 89 | 0.0 | 6.4 | 0.00 | 0.10 | 0.00 | 93 | 1007.9 |
| 20260504043813 | 7 | 46 | 1.6 | 6.4 | 0.00 | 0.10 | 0.00 | 93 | 1008.0 |
| 20260504041616 | 7 | 72 | 1.6 | 3.2 | 0.00 | 0.10 | 0.00 | 93 | 1007.7 |
| 20260504035448 | 7 | 124 | 0.0 | 4.8 | 0.00 | 0.10 | 0.13 | 92 | 1008.0 |
| 20260504034433 | 7 | 148 | 0.0 | 4.8 | 0.00 | 0.10 | 0.13 | 92 | 1007.9 |
| 20260504033426 | 7 | 1 | 0.0 | 3.2 | 0.00 | 0.10 | 0.13 | 91 | 1008.1 |
| 20260504032420 | 7 | 336 | 0.0 | 3.2 | 0.00 | 0.10 | 0.13 | 91 | 1008.0 |
| 20260504031428 | 7 | 89 | 1.6 | 3.2 | 0.00 | 0.10 | 0.13 | 90 | 1007.8 |
| 20260504030357 | 7 | 206 | 0.0 | 6.4 | 0.00 | 0.10 | 0.10 | 89 | 1008.3 |
| 20260504025333 | 7 | 295 | 1.6 | 6.4 | 0.00 | 0.10 | 0.10 | 89 | 1008.6 |
| 20260504024338 | 7 | 314 | 1.6 | 9.7 | 0.13 | 0.10 | 0.10 | 88 | 1008.3 |
| 20260504023356 | 7 | 1 | 1.6 | 9.7 | 0.10 | 0.08 | 0.08 | 87 | 1008.7 |
| 20260504022359 | 8 | 312 | 3.2 | 9.7 | 0.10 | 0.05 | 0.08 | 85 | 1009.1 |
| 20260504021346 | 8 | 334 | 3.2 | 8.0 | 0.00 | 0.05 | 0.05 | 83 | 1008.8 |
| 20260504020344 | 8 | 350 | 3.2 | 8.0 | 0.00 | 0.03 | 0.03 | 81 | 1008.8 |
| 20260504014158 | 9 | 302 | 1.6 | 9.7 | 0.00 | 0.00 | 0.00 | 74 | 1008.6 |
| 20260504011946 | 9 | 349 | 0.0 | 6.4 | 0.00 | 0.00 | 0.00 | 71 | 1008.4 |
| 20260504010958 | 9 | 295 | 0.0 | 0.0 | 0.00 | 0.00 | 0.00 | 70 | 1008.3 |
| 20260504010019 | 10 | 286 | 0.0 | 3.2 | 0.00 | 0.00 | 0.00 | 69 | 1008.3 |
| 20260504005012 | 10 | 344 | 1.6 | 4.8 | 0.00 | 0.00 | 0.00 | 68 | 1008.1 |
| 20260504004031 | 10 | 334 | 3.2 | 8.0 | 0.00 | 0.00 | 0.00 | 67 | 1008.1 |
| 20260504003025 | 10 | 303 | 1.6 | 9.7 | 0.00 | 0.00 | 0.00 | 66 | 1008.1 |
| 20260504002020 | 10 | 329 | 4.8 | 22.5 | 0.00 | 0.00 | 0.00 | 65 | 1007.9 |
| 20260504000954 | 10 | 277 | 9.7 | 22.5 | 0.00 | 0.00 | 0.00 | 63 | 1008.0 |
| 20260504000013 | 11 | 352 | 6.4 | 19.3 | 0.00 | 0.00 | 0.00 | 55 | 1008.5 |
| 20260503234949 | 11 | 290 | 4.8 | 16.1 | 0.00 | 0.00 | 0.00 | 55 | 1008.1 |
| 20260503233940 | 11 | 303 | 6.4 | 14.5 | 0.00 | 0.00 | 0.00 | 55 | 1007.9 |
| 20260503231832 | 11 | 258 | 8.0 | 19.3 | 0.00 | 0.00 | 0.00 | 53 | 1007.8 |
| 20260503225718 | 11 | 296 | 9.7 | 22.5 | 0.00 | 0.00 | 0.00 | 51 | 1007.9 |
| 20260503224722 | 12 | 260 | 6.4 | 16.1 | 0.00 | 0.00 | 0.00 | 49 | 1007.8 |
| 20260503223715 | 12 | 269 | 4.8 | 14.5 | 0.00 | 0.00 | 0.00 | 48 | 1007.8 |
| 20260503221606 | 12 | 246 | 6.4 | 17.7 | 0.00 | 0.00 | 0.00 | 47 | 1007.7 |
| 20260503220622 | 12 | 308 | 8.0 | 20.9 | 0.00 | 0.00 | 0.00 | 45 | 1007.6 |
| 20260503215559 | 12 | 274 | 9.7 | 22.5 | 0.00 | 0.00 | 0.00 | 43 | 1007.6 |
| 20260503213501 | 12 | 304 | 14.5 | 29.0 | 0.00 | 0.00 | 0.00 | 42 | 1007.6 |
| 20260503211400 | 12 | 279 | 12.9 | 32.2 | 0.00 | 0.00 | 0.00 | 41 | 1007.6 |
| 20260503210407 | 12 | 318 | 11.3 | 29.0 | 0.00 | 0.00 | 0.00 | 42 | 1007.7 |
| 20260503205347 | 12 | 257 | 12.9 | 30.6 | 0.00 | 0.00 | 0.00 | 41 | 1007.6 |
| 20260503204320 | 12 | 285 | 11.3 | 30.6 | 0.00 | 0.00 | 0.00 | 40 | 1007.5 |
| 20260503203340 | 12 | 299 | 11.3 | 27.4 | 0.00 | 0.00 | 0.00 | 40 | 1007.6 |
| 20260503202326 | 12 | 290 | 9.7 | 27.4 | 0.00 | 0.00 | 0.00 | 38 | 1007.6 |
| 20260503201311 | 12 | 327 | 11.3 | 27.4 | 0.00 | 0.00 | 0.00 | 37 | 1007.6 |
| 20260503200302 | 12 | 304 | 11.3 | 25.7 | 0.00 | 0.00 | 0.00 | 37 | 1007.7 |
| 20260503195254 | 13 | 274 | 11.3 | 24.1 | 0.00 | 0.00 | 0.00 | 36 | 1007.8 |
| 20260503194313 | 13 | 276 | 9.7 | 33.8 | 0.00 | 0.00 | 0.00 | 36 | 1007.8 |
| 20260503193337 | 13 | 255 | 12.9 | 33.8 | 0.00 | 0.00 | 0.00 | 37 | 1008.0 |
| 20260503192348 | 12 | 236 | 12.9 | 32.2 | 0.00 | 0.00 | 0.00 | 34 | 1008.1 |
| 20260503190201 | 12 | 312 | 8.0 | 25.7 | 0.00 | 0.00 | 0.00 | 35 | 1008.3 |
| 20260503185201 | 12 | 301 | 9.7 | 25.7 | 0.00 | 0.00 | 0.00 | 36 | 1008.5 |
| 20260503184128 | 12 | 342 | 9.7 | 37.0 | 0.00 | 0.00 | 0.00 | 36 | 1008.7 |
| 20260503183150 | 12 | 290 | 12.9 | 37.0 | 0.00 | 0.00 | 0.00 | 40 | 1008.8 |
| 20260503182130 | 11 | 234 | 9.7 | 29.0 | 0.00 | 0.00 | 0.00 | 40 | 1008.9 |
| 20260503181113 | 11 | 285 | 9.7 | 29.0 | 0.00 | 0.00 | 0.00 | 38 | 1009.1 |
| 20260503180050 | 12 | 276 | 8.0 | 32.2 | 0.00 | 0.00 | 0.00 | 41 | 1009.1 |
| 20260503173900 | 11 | 290 | 9.7 | 22.5 | 0.00 | 0.00 | 0.00 | 40 | 1009.4 |
| 20260503171720 | 11 | 277 | 11.3 | 29.0 | 0.00 | 0.00 | 0.00 | 43 | 1009.6 |
| 20260503170652 | 11 | 290 | 11.3 | 29.0 | 0.00 | 0.00 | 0.00 | 40 | 1009.6 |
| 20260503130839 | 6 | 284 | 9.7 | 20.9 | 0.00 | 0.00 | 0.00 | 61 | 1011.4 |
| 20260503110630 | 2 | 229 | 1.6 | 8.0 | 0.00 | 0.00 | 0.00 | 88 | 1011.1 |
| 20260503090326 | 2 | 296 | 0.0 | 1.6 | 0.00 | 0.00 | 0.00 | 90 | 1010.8 |
| 20260503081354 | 2 | 223 | 0.0 | 0.0 | 0.00 | 0.00 | 0.00 | 90 | 1011.0 |
| 20260503080335 | 2 | 314 | 0.0 | 0.0 | 0.00 | 0.00 | 0.00 | 90 | 1011.1 |
| 20260503072453 | 2 | 331 | 0.0 | 3.2 | 0.00 | 0.00 | 0.00 | 89 | 1011.0 |